EHI
0 0 0 0 0 0 0 0 0 0 0 0 0 0 0 0 0 0 0 0 0 0 0 0 0 0 0 0 0 0 0 0 0 0 0 0 0 0
0 0 0 0 0 0 0 0 0 0 0 0 0 0 0 0 0 0 0 0 0 0 0 0 0 0 0 0 0 0 0 0 0 0 0 0 0 0
0 0 0 0 0 0 0 0 0 0 0 0 0 0 0 0 0 0 0 0 0 0 0 0 0 0 0 0 0 0 0 0 0 0 0 0 0 0
0 0 0 0 0 0 0 0 0 0 0 0 0 0 0 0 0 0 0 0 0 0 0 0 0 0 0 0 0 0 0 0 0 0 0 0 0 0
0 0 0 0 0 0 0 0 0 0 0 0 0 0 0 0 0 0 0 0 0 0 0 0 0 0 0 0 0 0 0 0 0 0 0 0 0 0
0 0 0 0 0 0 0 0 0 0 0 0 0 0 0 0 0 0 0 0 0 0 0 0 0 0 0 0 0 0 0 0 0 0 0 0 0 0
0 0 0 0 0 0 0 0 0 0 0 0 0 0 0 0 0 0 0 0 0 0 0 0 0 0 0 0 0 0 0 0 0 0 0 0 0 0
0 0 0 0 0 0 0 0 0 0 0 0 0 0 0 0 0 0 0 0 0 0 0 0 0 0 0 0 0 0 0 0 0 0 0 0 0 0
0 0 0 0 0 0 0 0 0 0 0 0 0 0 0 0 0 0 0 0 0 0 0 0 0 0 0 0 0 0 0 0 0 0 0 0 0 0
0 0 0 0 0 0 0 0 0 0 0 0 0 0 0 0 0 0 0 0 0 0 0 0 0 0 0 0 0 0 0 0 0 0 0 0 0 0
0 0 0 0 0 0 0 0 0 0 0 0 0 0 0 0 0 0 0 0 0 0 0 0 0 0 0 0 0 0 0 0 0 0 0 0 0 0
0 0 0 0 0 0 0 0 0 0 0 0 0 0 0 0 0 0 0 0 0 0 0 0 0 0 0 0 0 0 0 0 0 0 0 0 0 0
0 0 0 0 0 0 0 0 0 0 0 0 0 0 0 0 0 0 0 0 0 0 0 0 0 0 0 0 0 0 0 0 0 0 0 0 0 0
0 0 0 0 0 0 0 0 0 0 0 0 0 0 0 0 0 0 0 0 0 0 0 0 0 0 0 0 0 0 0 0 0 0 0 0 0 0
0 0 0 0 0 0 0 0 0 0 0 0 0 0 0 0 0 0 0 0 0 0 0 0 0 0 0 0 0 0 0 0 0 0 0 0 0 0
0 0 0 0 0 0 0 0 0 0 0 0 0 1 1 1 1 0 0 0 0 0 0 0 0 0 0 0 0 0 0 0 0 0 0 0 0 0
0 0 0 0 0 0 0 0 0 0 0 0 1 2 2 2 2 1 0 0 0 0 0 0 0 0 0 0 0 0 0 0 0 0 0 0 0 0
0 0 0 0 0 0 0 0 0 1 1 1 1 3 3 3 2 1 0 0 0 0 0 0 0 0 0 0 0 0 0 0 0 0 0 0 0 0
0 0 0 0 0 0 0 0 1 2 2 2 3 3 3 2 1 0 0 0 0 0 0 0 0 0 0 0 0 0 0 0 0 0 0 0 0 0
0 0 0 0 0 0 0 0 1 2 3 3 3 2 2 1 0 0 0 0 0 0 0 0 0 0 0 0 0 0 0 0 0 0 0 0 0 0
0 0 0 0 0 0 0 0 0 1 1 2 1 1 1 0 0 0 0 0 0 0 0 0 0 0 0 0 0 0 0 0 0 0 0 0 0 0
0 0 0 0 0 0 0 0 0 0 0 0 0 0 0 0 0 0 0 0 0 0 0 0 0 0 0 0 0 0 0 0 0 0 0 0 0 0
0 0 0 0 0 0 0 0 0 0 0 0 0 0 0 0 0 0 0 0 0 0 0 0 0 0 0 0 0 0 0 0 0 0 0 0 0 0
Wind_Speed
2 2 2 2 1 1 1 2 2 0 1 2 1 3 2 2 3 2 3 7 6 5 5 6 6 6 7 7 8 8 9 10 11 11 12 12 12 11
1 2 1 1 1 1 0 1 2 2 0 2 1 2 2 1 3 2 3 5 4 4 4 5 5 5 6 6 6 7 8 9 10 10 11 11 11 10
2 2 2 1 1 1 0 0 1 1 0 1 1 1 2 1 2 1 1 1 3 4 4 4 4 5 5 5 6 6 7 8 9 10 10 11 11 10
1 1 2 2 1 0 0 0 0 0 0 1 1 1 1 1 1 1 1 1 2 5 4 4 4 4 4 5 5 6 6 7 8 9 9 10 10 10
1 1 1 2 2 1 1 1 0 1 0 1 0 0 0 0 0 0 0 1 1 2 3 3 3 4 4 4 5 5 6 6 7 8 9 9 10 10
1 1 1 2 1 1 2 2 1 1 1 1 1 1 1 0 1 1 1 0 1 1 1 1 2 1 1 2 4 5 5 6 6 7 8 8 9 9
2 1 1 1 2 1 1 1 2 2 2 2 1 1 1 1 1 1 1 1 1 1 1 1 1 1 0 1 2 4 5 5 6 7 7 7 8 8
2 2 2 3 3 3 1 2 3 3 3 2 2 2 2 1 1 2 2 2 2 0 3 2 2 2 1 2 4 4 4 5 5 6 7 7 7 8
3 2 2 2 3 3 5 6 4 3 4 5 4 3 3 2 2 3 3 3 3 2 3 3 2 2 1 2 3 2 3 4 5 6 6 7 7 7
3 3 3 3 2 2 2 2 2 2 3 4 3 3 3 2 3 3 3 4 4 2 3 4 2 3 2 0 3 1 2 3 4 5 6 7 8 8
3 3 3 3 2 2 4 3 3 2 1 1 2 2 3 2 3 3 3 4 3 2 1 4 3 3 3 2 3 5 2 2 3 4 5 6 8 8
3 3 3 3 2 4 5 4 4 3 3 3 4 5 4 3 4 5 4 4 4 3 0 3 3 4 3 1 1 1 2 3 4 3 3 5 7 6
3 3 2 4 4 4 6 4 3 3 3 3 3 2 2 2 3 3 3 4 4 4 2 3 4 4 4 4 2 2 3 3 3 3 3 2 3 5
3 3 1 4 4 4 4 2 2 4 4 3 3 3 3 2 2 2 3 3 3 4 3 3 4 4 5 5 4 3 3 3 3 4 4 2 3 4
2 0 0 3 4 4 5 5 5 5 4 4 4 3 2 2 2 2 2 2 3 3 3 4 4 4 5 5 5 4 4 3 3 4 4 4 4 3
2 2 3 3 3 2 4 5 5 3 3 4 3 3 3 3 3 3 3 3 3 3 2 3 4 5 5 5 5 5 4 4 3 4 4 5 4 4
2 2 3 3 3 3 3 3 3 3 4 4 4 4 3 4 3 3 3 3 4 4 3 2 3 3 4 5 5 5 5 4 4 4 5 5 5 4
3 3 4 4 4 3 3 3 4 4 4 4 4 4 4 4 3 3 3 4 4 4 3 2 2 3 4 3 3 6 5 5 5 5 5 5 6 4
4 4 4 4 4 4 4 4 4 4 4 4 4 4 4 4 3 3 3 4 4 4 3 3 3 4 5 5 2 3 5 5 5 5 5 5 6 6
4 4 4 4 4 4 4 4 3 3 4 4 4 4 4 4 4 4 4 4 4 4 4 3 3 4 5 6 5 4 4 5 5 6 6 6 6 6
4 4 4 4 4 4 3 3 4 3 4 4 4 4 4 4 4 4 4 4 5 5 5 4 2 4 4 4 5 4 3 4 5 6 6 7 7 6
4 4 4 4 4 4 3 3 4 4 4 4 4 4 4 4 5 5 5 4 4 4 4 3 2 3 4 5 6 6 6 5 4 7 8 8 6 6
4 4 4 4 4 3 4 4 5 4 4 4 4 4 4 4 4 4 4 4 4 4 4 4 3 3 4 4 5 5 7 6 5 5 5 5 9 11
Wind_Direction
94 98 88 82 64 42 15 308 304 247 114 99 86 73 61 54 38 33 50 71 54 43 40 36 32 30 29 28 27 24 20 16 13 11 10 10 10 10
97 104 96 93 81 83 19 329 322 322 18 82 77 82 68 67 69 35 57 83 66 49 42 36 30 28 29 29 26 21 16 13 11 10 9 7 5 5
147 141 131 103 119 130 140 38 4 346 106 100 109 105 111 69 75 47 42 34 75 76 53 41 32 27 26 26 22 17 13 12 10 8 7 7 5 3
163 166 159 147 159 137 176 157 61 347 230 154 152 123 104 72 58 32 42 47 51 80 68 46 35 29 25 22 19 13 10 9 7 6 5 4 3 1
210 209 198 184 183 166 198 201 163 144 217 220 148 108 180 90 13 270 87 40 46 106 111 88 51 36 30 25 20 13 9 7 7 5 2 1 -0 359
211 220 229 224 228 205 197 199 197 191 194 216 216 210 186 221 252 266 258 170 316 23 64 80 104 104 64 35 20 14 11 7 4 3 1 359 358 356
197 203 203 24 9 325 280 228 212 217 216 225 233 236 224 234 264 279 281 266 266 298 292 303 277 292 197 117 43 18 6 1 359 358 357 355 353 352
205 203 179 181 166 182 223 286 291 263 254 244 249 255 260 261 276 271 280 278 272 293 285 288 294 301 334 14 43 25 359 352 352 352 351 348 346 346
226 218 208 193 203 195 180 194 210 243 272 278 274 281 277 272 263 265 274 289 302 321 288 277 282 287 296 66 68 19 355 348 348 347 344 341 338 337
229 231 226 226 223 238 230 223 227 217 234 247 269 286 294 289 277 281 281 271 268 258 273 282 292 294 294 218 123 82 344 339 338 339 339 338 334 325
230 237 243 239 156 208 235 230 228 219 163 167 337 331 346 328 286 257 256 262 269 264 263 281 296 295 279 247 171 176 206 279 314 323 330 334 328 310
224 228 225 239 200 219 236 234 235 239 231 202 201 207 225 209 225 248 261 268 277 274 259 281 293 298 278 244 294 270 236 215 232 264 309 329 330 309
234 233 207 176 206 233 253 254 251 261 252 245 243 237 233 235 227 239 262 273 276 279 310 286 288 286 284 290 285 296 302 306 290 269 244 268 301 304
248 246 190 163 198 223 236 210 214 240 238 237 239 242 242 241 248 250 253 260 278 290 299 287 284 290 289 289 293 303 304 305 305 305 306 273 239 240
252 1 159 181 199 210 196 204 221 231 231 237 242 245 248 249 249 240 238 244 261 273 284 276 274 280 281 285 289 294 297 302 304 305 307 306 302 296
222 170 182 213 227 218 200 213 230 238 245 245 248 247 241 231 234 237 239 240 246 249 261 278 276 275 272 280 285 287 293 295 302 301 302 299 297 296
205 214 221 219 222 222 226 228 226 222 229 237 241 241 240 240 240 239 244 250 256 261 259 257 265 270 276 283 279 281 288 290 295 298 296 292 291 293
197 221 227 232 236 238 238 235 233 236 236 236 239 242 244 246 244 242 244 250 258 265 271 273 268 267 260 259 273 283 287 293 297 295 287 288 289 292
214 231 234 237 239 238 238 242 244 241 238 238 239 241 245 245 244 245 248 252 257 262 268 271 269 272 277 280 251 236 287 294 293 289 289 289 290 296
235 242 244 245 244 242 240 243 246 245 241 240 242 241 239 242 244 245 249 257 262 264 263 262 268 273 280 291 297 287 255 281 289 290 293 291 288 286
232 241 245 244 243 241 241 241 243 243 243 242 241 242 242 242 244 248 251 251 258 261 262 265 278 268 278 279 275 278 284 248 261 278 290 291 293 293
236 239 241 242 240 239 238 237 239 240 241 241 240 242 244 244 245 248 251 253 254 257 264 269 260 259 265 270 277 286 292 290 254 238 248 263 283 290
242 242 242 242 240 237 234 235 239 240 242 242 238 236 239 244 246 248 249 250 254 259 263 265 264 263 264 266 274 281 289 297 298 296 279 241 243 258